EW9290 Weather Reports


Display with metric or nautical units.
time (UTC)temp
F
wind
direction
speed
MPH
gust
MPH
rain 1hr
in
rain 24hr
in
rain mn
in
humidity
%
barometer
mb
20260507185543 54 296 2.0 2.0 0.00 0.00 0.00 51 1009.6
20260507185039 54 257 5.0 6.0 0.00 0.00 0.00 48 1009.5
20260507184538 53 299 3.0 3.0 0.00 0.00 0.00 51 1009.4
20260507184035 54 284 4.0 5.0 0.00 0.00 0.00 51 1009.7
20260507183531 54 273 3.0 5.0 0.00 0.00 0.00 51 1009.5
20260507183028 54 313 5.0 6.0 0.00 0.00 0.00 50 1009.6
20260507182524 54 239 4.0 5.0 0.00 0.00 0.00 50 1009.5
20260507182020 53 285 4.0 5.0 0.00 0.00 0.00 49 1009.9
20260507181518 55 230 5.0 6.0 0.00 0.00 0.00 49 1009.7
20260507181014 55 242 7.0 9.0 0.00 0.00 0.00 47 1009.6
20260507180510 53 234 3.0 3.0 0.00 0.00 0.00 49 1009.8
20260507180007 54 270 7.0 7.0 0.00 0.00 0.00 50 1009.7
20260507175503 53 251 3.0 3.0 0.00 0.00 0.00 52 1009.9
20260507175001 53 286 7.0 8.0 0.00 0.00 0.00 53 1009.8
20260507174458 53 309 3.0 3.0 0.00 0.00 0.00 56 1009.8
20260507173955 53 299 4.0 5.0 0.00 0.00 0.00 54 1009.9
20260507173452 53 209 1.0 1.0 0.00 0.00 0.00 55 1009.7
20260507172949 52 294 4.0 5.0 0.00 0.00 0.00 53 1009.9
20260507172445 53 304 5.0 6.0 0.00 0.00 0.00 52 1009.8
20260507171942 54 253 4.0 5.0 0.00 0.00 0.00 50 1010.0
20260507171438 55 268 3.0 3.0 0.00 0.00 0.00 52 1009.8
20260507170936 55 222 8.0 9.0 0.00 0.00 0.00 48 1010.0
20260507170432 53 280 6.0 7.0 0.00 0.00 0.00 52 1010.2
20260507165928 54 322 5.0 6.0 0.00 0.00 0.00 53 1010.0
20260507165424 55 276 5.0 6.0 0.00 0.00 0.00 53 1009.9
20260507164920 54 225 5.0 6.0 0.00 0.00 0.00 51 1010.1
20260507164417 54 237 7.0 9.0 0.00 0.00 0.00 49 1009.9
20260507163914 53 302 6.0 7.0 0.00 0.00 0.00 49 1009.9
20260507163412 55 220 3.0 3.0 0.00 0.00 0.00 50 1010.0
20260507162909 54 243 3.0 3.0 0.00 0.00 0.00 44 1010.0
20260507162404 54 260 4.0 5.0 0.00 0.00 0.00 51 1010.0
20260507161902 53 285 7.0 8.0 0.00 0.00 0.00 54 1010.0
20260507161357 54 255 5.0 6.0 0.00 0.00 0.00 54 1010.3
20260507160854 54 328 3.0 5.0 0.00 0.00 0.00 53 1009.9
20260507160350 53 276 2.0 3.0 0.00 0.00 0.00 53 1010.0
20260507155846 52 313 3.0 5.0 0.00 0.00 0.00 56 1009.9
20260507155342 52 295 5.0 6.0 0.00 0.00 0.00 55 1010.1
20260507154839 52 276 3.0 3.0 0.00 0.00 0.00 54 1010.1
20260507154337 53 252 1.0 1.0 0.00 0.00 0.00 54 1010.0
20260507153833 53 256 5.0 7.0 0.00 0.00 0.00 56 1010.2
20260507153330 52 327 5.0 6.0 0.00 0.00 0.00 54 1010.4
20260507152826 53 353 6.0 7.0 0.00 0.00 0.00 57 1010.0
20260507152323 53 289 4.0 5.0 0.00 0.00 0.00 53 1010.2
20260507151819 53 304 3.0 3.0 0.00 0.00 0.00 58 1010.1
20260507151315 53 315 1.0 1.0 0.00 0.00 0.00 57 1010.1
20260507150812 53 12 4.0 5.0 0.00 0.00 0.00 59 1010.2
20260507150309 53 261 3.0 3.0 0.00 0.00 0.00 59 1010.3
20260507145805 53 226 1.0 2.0 0.00 0.00 0.00 61 1010.2
20260507145302 53 204 3.0 5.0 0.00 0.00 0.00 59 1010.2
20260507144759 53 313 1.0 1.0 0.00 0.00 0.00 59 1010.2
20260507144256 53 243 4.0 6.0 0.00 0.00 0.00 60 1010.2
20260507143752 52 230 1.0 1.0 0.00 0.00 0.00 63 1010.1
20260507143250 51 245 4.0 5.0 0.00 0.00 0.00 64 1010.0
20260507142745 51 238 3.0 3.0 0.00 0.00 0.00 64 1010.2
20260507142242 51 329 1.0 1.0 0.00 0.00 0.00 63 1010.2
20260507141739 51 271 3.0 5.0 0.00 0.00 0.00 64 1010.3
20260507141236 52 216 1.0 2.0 0.00 0.00 0.00 67 1010.4
20260507140732 52 220 3.0 3.0 0.00 0.00 0.00 66 1010.5
20260507140230 51 292 2.0 2.0 0.00 0.00 0.00 67 1010.4
20260507135726 51 225 2.0 2.0 0.00 0.00 0.00 64 1010.7
20260507135224 50 268 1.0 1.0 0.00 0.00 0.00 67 1010.5
20260507134720 50 245 0.0 1.0 0.00 0.00 0.00 68 1010.9
20260507134216 50 292 3.0 3.0 0.00 0.00 0.00 67 1010.7
20260507133712 50 338 1.0 1.0 0.00 0.00 0.00 69 1010.8
20260507133209 49 276 0.0 0.0 0.00 0.00 0.00 69 1010.7
20260507132707 49 224 1.0 2.0 0.00 0.00 0.00 71 1010.7
20260507132203 49 197 0.0 1.0 0.00 0.00 0.00 71 1010.8
20260507131700 49 214 1.0 1.0 0.00 0.00 0.00 73 1011.0
20260507131158 48 207 1.0 2.0 0.00 0.00 0.00 73 1011.1
20260507130654 48 227 2.0 3.0 0.00 0.00 0.00 73 1010.9
20260507130152 48 201 1.0 1.0 0.00 0.00 0.00 75 1010.8
20260507125650 47 238 0.0 1.0 0.00 0.00 0.00 76 1011.0
20260507125148 46 237 1.0 1.0 0.00 0.00 0.00 77 1011.0
20260507124643 47 280 2.0 2.0 0.00 0.00 0.00 76 1011.0
20260507124141 46 283 2.0 2.0 0.00 0.00 0.00 77 1011.1
20260507123640 46 282 3.0 3.0 0.00 0.00 0.00 77 1011.1
20260507123136 46 300 1.0 1.0 0.00 0.00 0.00 78 1010.9
20260507122632 46 277 1.0 1.0 0.00 0.00 0.00 80 1011.0
20260507122128 46 257 2.0 2.0 0.00 0.00 0.00 80 1010.9
20260507121624 45 258 2.0 2.0 0.00 0.00 0.00 82 1010.7
20260507121120 44 208 0.0 1.0 0.00 0.00 0.00 84 1010.5
20260507120616 44 206 1.0 1.0 0.00 0.00 0.00 85 1010.7
20260507120113 43 175 0.0 0.0 0.00 0.00 0.00 85 1010.7
20260507115609 43 190 1.0 2.0 0.00 0.00 0.00 86 1010.8
20260507115105 42 145 2.0 2.0 0.00 0.00 0.00 90 1010.8
20260507114601 41 125 1.0 2.0 0.00 0.00 0.00 93 1010.8
20260507114058 40 87 0.0 0.0 0.00 0.00 0.00 95 1010.9
20260507113555 40 87 0.0 0.0 0.00 0.00 0.00 95 1010.5
20260507113053 40 87 0.0 0.0 0.00 0.00 0.00 96 1010.7
20260507112550 39 87 0.0 0.0 0.00 0.00 0.00 96 1010.9
20260507112047 39 87 0.0 0.0 0.00 0.00 0.00 96 1010.7
20260507111544 39 87 0.0 0.0 0.00 0.00 0.00 97 1010.7
20260507111041 39 86 0.0 0.0 0.00 0.00 0.00 97 1010.3
20260507110537 39 81 0.0 0.0 0.00 0.00 0.00 97 1010.5
20260507110034 38 81 0.0 0.0 0.00 0.00 0.00 97 1010.8
20260507105531 38 81 0.0 0.0 0.00 0.00 0.00 97 1010.7
20260507105026 38 74 0.0 0.0 0.00 0.00 0.00 97 1010.4
20260507104524 38 74 0.0 0.0 0.00 0.00 0.00 96 1010.2
20260507104020 38 74 0.0 0.0 0.00 0.00 0.00 96 1010.3
20260507103517 38 74 0.0 0.0 0.00 0.00 0.00 95 1010.4
20260507103013 39 74 0.0 0.0 0.00 0.00 0.00 95 1010.1
20260507102510 38 73 0.0 0.0 0.00 0.00 0.00 96 1010.3
20260507102007 39 73 0.0 0.0 0.00 0.00 0.00 96 1010.2
20260507101501 39 73 0.0 0.0 0.00 0.00 0.00 95 1010.1
20260507100958 39 73 0.0 0.0 0.00 0.00 0.00 95 1010.3
20260507100456 39 45 0.0 0.0 0.00 0.00 0.00 96 1010.1
20260507095954 39 28 0.0 0.0 0.00 0.00 0.00 96 1010.1
20260507095451 39 26 3.0 3.0 0.00 0.00 0.00 96 1010.1
20260507094948 39 133 0.0 0.0 0.00 0.00 0.00 96 1010.1
20260507094444 39 132 0.0 0.0 0.00 0.00 0.00 96 1009.9
20260507093941 39 124 0.0 0.0 0.00 0.00 0.00 96 1010.1
20260507093439 39 124 0.0 0.0 0.00 0.00 0.00 97 1010.2
20260507092937 39 124 0.0 0.0 0.00 0.00 0.00 97 1010.2
20260507092433 39 124 0.0 0.0 0.00 0.00 0.00 97 1010.3
20260507091930 39 122 0.0 0.0 0.00 0.00 0.00 97 1010.2
20260507091426 39 121 0.0 0.0 0.00 0.00 0.00 98 1010.1
20260507090922 38 121 0.0 0.0 0.00 0.00 0.00 98 1010.1
20260507090418 38 121 0.0 0.0 0.00 0.00 0.00 98 1010.7
20260507085915 38 120 0.0 0.0 0.00 0.00 0.00 98 1010.3
20260507085412 38 120 0.0 0.0 0.00 0.00 0.00 98 1010.4
20260507084909 38 120 0.0 0.0 0.00 0.00 0.00 98 1010.3
20260507084406 38 120 0.0 0.0 0.00 0.00 0.00 98 1010.3
20260507083903 38 121 1.0 1.0 0.00 0.00 0.00 99 1010.2
20260507083359 38 119 1.0 1.0 0.00 0.00 0.00 99 1010.4
20260507082856 38 110 1.0 1.0 0.00 0.00 0.00 99 1010.3
20260507082351 38 106 0.0 0.0 0.00 0.00 0.00 99 1010.4
20260507081849 38 92 0.0 0.0 0.00 0.00 0.00 99 1010.3
20260507081345 38 91 0.0 0.0 0.00 0.00 0.00 99 1010.4
20260507080842 38 91 0.0 0.0 0.00 0.00 0.00 99 1010.7
20260507080338 38 91 0.0 0.0 0.00 0.00 0.00 99 1010.4
20260507075833 38 91 0.0 0.0 0.00 0.00 0.00 98 1010.3
20260507075329 38 91 0.0 0.0 0.00 0.00 0.00 98 1010.4
20260507074826 38 91 0.0 0.0 0.00 0.00 0.00 98 1010.3
20260507074324 39 91 0.0 0.0 0.00 0.00 0.00 98 1010.4
20260507073821 39 91 0.0 0.0 0.00 0.00 0.00 98 1010.4
20260507073318 39 91 0.0 0.0 0.00 0.00 0.00 98 1010.5
20260507072815 39 92 0.0 0.0 0.00 0.00 0.00 97 1010.5
20260507072312 39 91 0.0 0.0 0.00 0.00 0.00 97 1010.4
20260507071809 39 91 0.0 0.0 0.00 0.00 0.00 97 1010.5
20260507071306 39 91 0.0 0.0 0.00 0.00 0.00 97 1010.5
20260507070802 39 91 0.0 0.0 0.00 0.00 0.00 98 1010.5
20260507070300 39 91 0.0 0.0 0.00 0.00 0.00 98 1010.7
20260507065756 39 91 0.0 0.0 0.00 0.00 0.00 98 1010.5
20260507065253 39 91 0.0 0.0 0.00 0.00 0.00 98 1010.5
20260507064750 40 91 0.0 0.0 0.00 0.00 0.00 98 1010.5
20260507064249 40 91 0.0 0.0 0.00 0.00 0.00 98 1010.9
20260507063746 40 91 0.0 0.0 0.00 0.00 0.00 98 1010.8
20260507063243 40 92 0.0 0.0 0.00 0.00 0.00 98 1010.8
20260507062740 40 91 0.0 0.0 0.00 0.00 0.00 98 1011.0
20260507062237 40 92 0.0 0.0 0.00 0.00 0.00 98 1010.9
20260507061735 40 91 0.0 0.0 0.00 0.00 0.00 98 1010.8
20260507061232 41 91 0.0 0.0 0.00 0.00 0.00 97 1010.9
20260507060731 41 91 0.0 0.0 0.00 0.00 0.00 97 1010.9
20260507060227 41 91 0.0 0.0 0.00 0.00 0.00 97 1010.9
20260507055723 41 91 0.0 0.0 0.00 0.00 0.00 97 1011.1
20260507055219 41 91 0.0 0.0 0.00 0.00 0.00 96 1011.2
20260507054715 41 91 0.0 0.0 0.00 0.00 0.00 96 1011.2
20260507054212 41 91 0.0 0.0 0.00 0.00 0.00 96 1011.1
20260507053710 41 91 0.0 0.0 0.00 0.00 0.00 95 1011.3
20260507053207 42 91 0.0 0.0 0.00 0.00 0.00 95 1011.0
20260507052706 42 90 0.0 0.0 0.00 0.00 0.00 94 1011.2
20260507052201 42 90 0.0 0.0 0.00 0.00 0.00 94 1011.1
20260507051700 42 90 0.0 0.0 0.00 0.00 0.00 94 1011.2
20260507051156 42 88 0.0 0.0 0.00 0.00 0.00 94 1011.2
20260507050653 42 88 0.0 0.0 0.00 0.00 0.00 93 1011.1
20260507050150 42 87 0.0 0.0 0.00 0.00 0.00 93 1011.2
20260507045647 43 80 0.0 0.0 0.00 0.00 0.00 93 1011.3
20260507045143 43 79 0.0 0.0 0.00 0.00 0.00 92 1011.1
20260507044640 43 78 0.0 0.0 0.00 0.00 0.00 92 1011.2
20260507044137 43 77 0.0 0.0 0.00 0.00 0.00 92 1011.4
20260507043633 43 78 0.0 0.0 0.00 0.00 0.00 92 1011.4
20260507043130 43 77 0.0 0.0 0.00 0.00 0.00 92 1011.4
20260507042627 43 76 0.0 0.0 0.00 0.00 0.00 92 1011.2
20260507042121 44 76 1.0 1.0 0.00 0.00 0.00 92 1011.4
20260507041619 44 74 0.0 1.0 0.00 0.00 0.00 92 1011.5
20260507041115 43 62 0.0 1.0 0.00 0.00 0.00 92 1011.3
20260507040613 43 48 1.0 1.0 0.00 0.00 0.00 93 1011.3
20260507040109 43 37 0.0 1.0 0.00 0.00 0.00 93 1011.5
20260507035605 43 33 0.0 1.0 0.00 0.30 0.30 92 1011.5
20260507035101 44 22 0.0 0.0 0.00 0.30 0.30 92 1011.7
20260507034558 44 22 0.0 0.0 0.00 0.30 0.30 92 1011.7
20260507034056 44 22 0.0 0.0 0.00 0.30 0.30 92 1011.8
20260507033554 43 22 0.0 0.0 0.00 0.30 0.30 91 1011.6
20260507033051 44 22 0.0 0.0 0.00 0.30 0.30 91 1011.8
20260507032548 44 22 0.0 0.0 0.00 0.30 0.30 91 1011.7
20260507032044 43 19 0.0 0.0 0.00 0.30 0.30 91 1011.8
20260507031541 43 19 0.0 0.0 0.00 0.30 0.30 90 1011.8
20260507031038 44 19 0.0 0.0 0.00 0.30 0.30 91 1011.7
20260507030534 44 19 0.0 0.0 0.00 0.30 0.30 91 1011.9
20260507030032 44 18 0.0 0.0 0.00 0.30 0.30 89 1012.0
20260507025529 44 19 0.0 0.0 0.00 0.30 0.30 87 1011.8
20260507025026 44 18 0.0 0.0 0.00 0.30 0.30 86 1011.9
20260507024524 44 19 0.0 0.0 0.00 0.30 0.30 84 1011.6
20260507024020 44 19 0.0 0.0 0.00 0.30 0.30 84 1011.6
20260507023516 44 19 0.0 0.0 0.00 0.30 0.30 83 1011.7
20260507023015 45 19 0.0 0.0 0.00 0.30 0.30 82 1011.5
20260507022511 45 19 0.0 0.0 0.00 0.30 0.30 81 1011.5
20260507022006 46 19 0.0 0.0 0.00 0.30 0.30 80 1011.5
20260507021502 46 19 0.0 0.0 0.00 0.30 0.30 79 1011.3
20260507020959 46 18 0.0 0.0 0.00 0.30 0.30 79 1011.4
20260507020456 46 18 0.0 0.0 0.00 0.30 0.30 80 1011.5
20260507015953 46 18 0.0 0.0 0.00 0.30 0.30 79 1011.2
20260507015452 46 18 0.0 0.0 0.00 0.30 0.30 80 1011.3
20260507014948 46 18 0.0 0.0 0.00 0.30 0.30 81 1011.3
20260507014445 46 18 0.0 0.0 0.00 0.30 0.30 80 1011.4
20260507013941 46 18 0.0 0.0 0.00 0.30 0.30 78 1011.5
20260507013438 46 18 0.0 0.0 0.00 0.30 0.30 77 1011.0
20260507012935 46 18 0.0 0.0 0.00 0.30 0.30 77 1011.0
20260507012432 47 18 0.0 0.0 0.00 0.30 0.30 76 1011.1
20260507011928 47 18 0.0 0.0 0.00 0.30 0.30 75 1011.0
20260507011426 47 18 0.0 0.0 0.00 0.30 0.30 73 1011.1
20260507010926 47 18 0.0 0.0 0.00 0.30 0.30 73 1010.9
20260507010421 47 18 0.0 0.0 0.00 0.30 0.30 72 1010.9
20260507005918 47 18 0.0 0.0 0.00 0.30 0.30 74 1011.1
20260507005415 47 18 0.0 0.0 0.00 0.30 0.30 73 1011.1
20260507004912 48 18 0.0 0.0 0.00 0.30 0.30 72 1010.9
20260507004408 48 11 0.0 0.0 0.00 0.30 0.30 72 1010.8
20260507003906 48 11 0.0 0.0 0.00 0.30 0.30 72 1010.8
20260507003401 48 11 0.0 0.0 0.00 0.30 0.30 70 1010.8
20260507002857 48 11 1.0 1.0 0.00 0.30 0.30 69 1010.8
20260507002353 48 6 1.0 2.0 0.00 0.30 0.30 69 1010.9
20260507001850 48 22 1.0 2.0 0.00 0.30 0.30 69 1010.8
20260507001347 48 5 2.0 3.0 0.00 0.30 0.30 70 1010.9
20260507000843 49 18 1.0 1.0 0.00 0.30 0.30 70 1010.9
20260507000339 49 355 1.0 2.0 0.00 0.30 0.30 68 1010.5
20260506235836 49 346 2.0 2.0 0.00 0.30 0.30 69 1011.0
20260506235332 49 22 1.0 1.0 0.00 0.30 0.30 67 1011.0
20260506234828 49 17 1.0 1.0 0.00 0.30 0.30 68 1010.5
20260506234326 49 8 3.0 3.0 0.00 0.30 0.30 67 1010.9
20260506233824 49 17 0.0 0.0 0.00 0.30 0.30 68 1011.0
20260506233319 49 17 0.0 0.0 0.00 0.30 0.30 67 1011.1
20260506232817 49 25 1.0 1.0 0.00 0.30 0.30 68 1010.9
20260506232312 49 38 1.0 2.0 0.00 0.30 0.30 67 1010.7
20260506231809 49 33 3.0 3.0 0.00 0.30 0.30 67 1010.7
20260506231307 49 15 2.0 6.0 0.00 0.30 0.30 67 1010.8
20260506230804 49 14 2.0 2.0 0.00 0.30 0.30 68 1010.7
20260506230301 49 29 2.0 3.0 0.00 0.30 0.30 69 1010.5
20260506225757 49 15 4.0 6.0 0.00 0.30 0.30 69 1010.5
20260506225254 49 27 1.0 1.0 0.00 0.30 0.30 68 1010.5
20260506224745 50 24 2.0 3.0 0.00 0.30 0.30 68 1010.5
20260506224243 50 33 2.0 3.0 0.00 0.30 0.30 68 1010.3
20260506223738 50 24 4.0 5.0 0.00 0.30 0.30 67 1010.5
20260506223234 50 16 5.0 6.0 0.00 0.30 0.30 67 1010.4
20260506222731 50 13 7.0 9.0 0.00 0.30 0.30 66 1010.5
20260506222226 50 2 4.0 5.0 0.00 0.30 0.30 67 1010.3
20260506221725 50 34 4.0 6.0 0.00 0.30 0.30 67 1010.3
20260506221223 50 26 5.0 7.0 0.00 0.30 0.30 67 1010.0
20260506220720 50 351 4.0 5.0 0.00 0.30 0.30 67 1010.2
20260506220214 51 330 6.0 7.0 0.00 0.30 0.30 65 1010.0
20260506215711 51 9 3.0 3.0 0.00 0.30 0.30 61 1010.2
20260506215207 51 341 2.0 2.0 0.00 0.30 0.30 58 1009.8
20260506214704 51 2 5.0 7.0 0.00 0.30 0.30 58 1010.0
20260506214201 51 333 4.0 5.0 0.00 0.30 0.30 57 1009.8
20260506213659 52 324 3.0 3.0 0.00 0.30 0.30 58 1009.6
20260506213156 52 19 3.0 3.0 0.00 0.30 0.30 58 1009.8
20260506212653 52 6 0.0 1.0 0.00 0.30 0.30 57 1009.5
20260506212148 53 13 4.0 6.0 0.00 0.30 0.30 58 1009.5
20260506211644 52 339 4.0 6.0 0.00 0.30 0.30 57 1009.4
20260506211141 52 8 5.0 6.0 0.00 0.30 0.30 58 1009.1
20260506210638 52 43 3.0 6.0 0.00 0.30 0.30 56 1009.5
20260506210134 53 10 4.0 5.0 0.00 0.30 0.30 58 1009.4
20260506205632 53 271 3.0 3.0 0.00 0.30 0.30 57 1009.5
20260506205126 53 297 3.0 5.0 0.00 0.30 0.30 55 1009.4
20260506204625 53 0 3.0 5.0 0.00 0.30 0.30 55 1009.5
20260506204121 52 290 2.0 2.0 0.00 0.30 0.30 54 1009.4
20260506203619 53 0 2.0 3.0 0.00 0.30 0.30 56 1009.5
20260506203116 53 314 4.0 5.0 0.00 0.30 0.30 57 1009.6
20260506202614 53 290 2.0 3.0 0.00 0.30 0.30 53 1009.6
20260506202110 52 331 5.0 5.0 0.00 0.30 0.30 55 1009.4
20260506201607 52 301 4.0 5.0 0.00 0.30 0.30 53 1009.5
20260506201103 52 309 3.0 3.0 0.00 0.30 0.30 53 1009.5
20260506200600 52 26 4.0 5.0 0.00 0.30 0.30 53 1009.6
20260506200057 52 320 1.0 2.0 0.00 0.30 0.30 56 1009.6
20260506195553 52 320 5.0 7.0 0.00 0.30 0.30 53 1009.7
20260506195049 52 317 3.0 5.0 0.00 0.30 0.30 54 1009.5
20260506194548 52 321 2.0 2.0 0.00 0.30 0.30 51 1009.7
20260506194043 52 264 3.0 5.0 0.00 0.30 0.30 53 1009.5
20260506193541 52 316 5.0 6.0 0.00 0.30 0.30 49 1009.7
20260506193038 52 335 2.0 3.0 0.00 0.30 0.30 51 1009.4
20260506192535 52 20 5.0 7.0 0.00 0.30 0.30 55 1009.8
20260506192031 52 30 7.0 9.0 0.00 0.30 0.30 57 1009.6
20260506191528 53 346 3.0 3.0 0.00 0.30 0.30 54 1009.9
20260506191024 54 353 5.0 6.0 0.00 0.30 0.30 55 1009.7
20260506190521 53 306 6.0 7.0 0.00 0.30 0.30 52 1009.8
20260506190019 52 47 9.0 11.0 0.00 0.30 0.30 54 1009.5